Location: Taaricht
(32.5378°N, 5.4251°W)
Time: 17:49:37
(UTC+00:00)

Aureole 2 Rocket - Pass Details

Date: 09 April 2020
Orbit: 307 x 439 km, 73.9° (Epoch: 27 May)

Event Time Altitude Azimuth Distance (km) Brightness Sun altitude
Rises 19:26:38 0° 334° (NNW) 2,423 6.8 -8.9°
Reaches altitude 10° 19:28:51 10° 325° (NW) 1,535 5.9 -9.3°
Maximum altitude 19:31:58 36° 258° (WSW) 686 4.0 -9.9°
Drops below altitude 10° 19:34:58 10° 189° (S) 1,466 4.9 -10.5°
Sets 19:37:02 0° 181° (S) 2,296 5.8 -11.0°
